Location: Kile Knob Observatory
(38.6083°N, 79.4792°W)
Time: 23:10:25
(UTC-04:00)

Tiangong 2 - Pass Details

Date: 02 June 2019
Orbit: 376 x 389 km, 42.8° (Epoch: 17 June)

Event Time Altitude Azimuth Distance (km) Brightness Sun altitude
Rises 21:22:28 0° 282° (WNW) 2,238 6.3 -8.2°
Reaches altitude 10° 21:24:53 10° 264° (W) 1,382 4.6 -8.6°
Maximum altitude 21:27:14 20° 215° (SW) 947 3.0 -8.9°
Drops below altitude 10° 21:29:34 10° 166° (SSE) 1,372 3.4 -9.3°
Enters shadow 21:29:43 - 164° (SSE) 1,421 3.4 -9.3°
